#timestamp,LO_Frequency,Hit,StdDev 
1514919615.2,286046999.9,N
1514919635.1,286047002.6,N
1514919636.0,286047002.6,N
1514919655.8,286047001.0,N
1514919675.7,286047002.2,N
1514919695.5,286047004.1,Y
1514919715.4,286047002.7,P
1514919735.2,286047000.2,N
1514919755.0,286047002.7,N
1514919755.9,286047002.7,N
1514919775.8,286047000.3,N
1514919795.6,286046999.3,N
1514919815.4,286046999.2,N
1514919835.3,286046996.8,N
1514919855.1,286046999.5,N
1514919875.9,286047001.0,N
1514919895.7,286046998.8,N
1514919915.5,286047000.5,N
1514919935.4,286047001.2,N
1514919955.2,286046998.7,N
1514919975.0,286047000.3,N
1514919975.9,286047000.3,N
1514919995.8,286047002.6,N
1514920015.6,286047000.8,N
1514920035.5,286046999.9,N
1514920055.3,286046999.7,N
1514920075.1,286047004.2,N
1514920095.9,286047004.0,N
1514920115.7,286047004.1,N
1514920135.6,286047002.4,N
1514920155.4,286047001.9,N
1514920175.2,286046999.8,N
1514920195.1,286047001.4,N
1514920196.0,286047001.4,N
1514920215.8,286047001.3,N
1514920235.7,286047003.3,N
1514920255.5,286047003.8,N
1514920275.3,286047002.0,N
1514920295.2,286047001.6,N
1514920315.0,286047002.8,N
1514920315.9,286047002.8,N
1514920335.8,286047002.8,N
1514920355.6,286047000.8,N
1514920375.4,286046998.6,N
1514920395.3,286047002.3,N
1514920415.1,286046998.9,N
1514920435.9,286046998.1,N
1514920455.7,286047000.8,N
1514920475.5,286046997.3,N
1514920495.4,286046997.5,N
1514920515.2,286046999.1,N
1514920535.0,286047002.7,N
1514920535.9,286047002.7,N
1514920555.8,286047002.3,N
1514920575.6,286047000.9,N
1514920595.5,286047002.8,N
1514920615.3,286046998.2,N
1514920635.1,286047000.6,N
1514920655.9,286046998.6,N
1514920675.7,286047000.4,N
1514920695.6,286046998.3,N
1514920715.4,286047002.8,N
1514920735.2,286047002.2,N
1514920755.1,286047005.9,Y
1514920756.0,286047005.9,P
1514920775.8,286047003.8,N
1514920795.7,286047003.8,N
1514920815.5,286047002.5,N
1514920835.3,286047011.9,Y
1514920855.2,286046999.2,P
1514920875.0,286046997.6,N
1514920875.9,286046997.6,N
1514920895.7,286046997.8,N
1514920915.6,286046997.4,N
1514920935.4,286046997.4,N
1514920955.3,286046997.0,N
1514920975.1,286046996.6,N
1514920976.0,286046996.6,N
1514920995.8,286046999.3,N
1514921015.7,286046999.2,N
1514921035.5,286046999.5,N
1514921055.3,286046996.6,N
1514921075.2,286046999.5,N
1514921095.0,286046998.5,N
1514921095.9,286046998.5,N
1514921115.8,286047001.0,N
1514921135.6,286046999.5,N
1514921155.4,286046999.0,N
1514921175.3,286046997.5,N
1514921195.1,286046999.1,N
1514921215.8,286046999.3,N
1514921235.7,286046999.3,N
1514921255.5,286046998.9,N
1514921275.4,286047001.0,N
1514921295.2,286046996.7,N
1514921315.0,286046996.5,N
1514921315.9,286046996.5,N
1514921335.8,286046995.3,N
1514921355.6,286046999.1,N
1514921375.4,286046998.2,N
1514921395.3,286047000.8,N
1514921415.1,286046996.6,N
1514921435.9,286046996.9,N
1514921455.7,286046995.8,N
1514921475.5,286046996.5,N
1514921495.4,286047000.7,N
1514921515.2,286046999.2,N
1514921535.1,286047000.6,N
1514921536.0,286047000.6,N
1514921555.8,286046999.7,N
1514921575.6,286047000.7,N
1514921595.5,286047001.0,N
1514921615.3,286046999.1,N
1514921635.1,286046999.2,N
1514921655.9,286047000.5,N
1514921675.7,286047004.3,N
1514921695.6,286047001.9,N
1514921715.4,286047003.6,N
1514921735.2,286047003.5,N
1514921755.1,286047005.5,N
1514921756.0,286047005.5,N
1514921775.8,286047003.2,N
1514921795.6,286047001.7,N
1514921815.5,286047002.8,N
1514921835.3,286047000.5,N
1514921855.2,286047002.7,N
1514921875.9,286047002.0,N
1514921895.7,286047003.7,N
1514921915.6,286047003.0,N
1514921935.4,286047004.8,N
1514921955.2,286047005.2,N
1514921975.1,286047001.6,N
1514921976.0,286047001.6,N
1514921995.8,286047005.6,N
1514922015.7,286047004.4,N
1514922035.5,286047006.4,Y
1514922055.3,286047004.5,P
1514922075.2,286047003.4,P
1514922095.0,286047003.2,P
1514922095.9,286047003.2,Y
1514922115.8,286046998.3,P
1514922135.6,286046996.7,N
1514922155.4,286046999.6,N
1514922175.3,286046999.1,N
1514922195.1,286046997.2,N
1514922215.8,286046996.1,N
1514922235.7,286046995.4,N
1514922255.5,286046995.2,N
1514922275.4,286046996.3,N
1514922295.2,286046995.9,N
1514922315.0,286046996.4,N
1514922315.9,286046996.4,N
1514922335.8,286046993.4,Y
1514922355.6,286046998.4,P
1514922375.5,286046998.5,P
1514922395.3,286046999.5,N
1514922415.1,286047000.7,N
1514922435.9,286047001.6,N
1514922455.7,286047004.0,N
1514922475.5,286046998.2,N
1514922495.4,286046998.8,N
1514922515.2,286046999.7,N
1514922535.1,286047002.3,N
1514922536.0,286047002.3,N
1514922555.8,286046998.4,N
1514922575.6,286047002.8,N
1514922595.5,286047002.7,N
1514922615.3,286047002.4,N
1514922635.1,286047002.2,N
1514922655.9,286047002.3,N
1514922675.7,286046999.8,N
1514922695.6,286047001.2,N
1514922715.4,286047002.3,N
1514922735.2,286047000.4,N
1514922755.1,286046998.1,N
1514922756.0,286046998.1,N
1514922775.8,286046995.1,N
1514922795.6,286046997.0,N
1514922815.5,286047001.0,N
1514922835.3,286047000.0,N
1514922855.2,286047000.3,N
1514922875.9,286047001.7,N
1514922895.7,286047000.3,N
1514922915.6,286046996.9,N
1514922935.4,286046996.7,N
1514922955.2,286046999.4,N
1514922975.1,286046998.3,N
1514922976.0,286046998.3,N
1514922995.8,286046999.3,N
1514923015.7,286046996.8,N
1514923035.5,286047000.5,N
1514923055.3,286046999.8,N
1514923075.2,286046999.8,N
1514923095.0,286047001.0,N
1514923095.9,286047001.0,N
1514923115.8,286047002.8,N
1514923135.6,286047002.4,N
1514923155.4,286047002.8,N
1514923175.3,286046997.1,N
1514923195.1,286046997.7,N
